| time (UTC) | temp F | wind direction | speed MPH | gust MPH | rain 1hr in | rain 24hr in | rain mn in | humidity % | barometer mb |
| 20260505032024 | 74 | 0 | 0.0 | 4.0 | 0.00 | 0.13 | 0.13 | 89 | 1014.3 |
| 20260505031540 | 74 | 89 | 1.0 | 4.0 | 0.00 | 0.13 | 0.13 | 89 | 1014.2 |
| 20260505031023 | 74 | 0 | 1.0 | 6.0 | 0.00 | 0.13 | 0.13 | 89 | 1014.1 |
| 20260505030524 | 74 | 101 | 2.0 | 6.0 | 0.00 | 0.13 | 0.13 | 89 | 1014.2 |
| 20260505030039 | 74 | 89 | 1.0 | 5.0 | 0.00 | 0.13 | 0.13 | 89 | 1014.3 |
| 20260505025530 | 74 | 80 | 1.0 | 6.0 | 0.00 | 0.13 | 0.13 | 89 | 1014.4 |
| 20260505025024 | 74 | 120 | 1.0 | 6.0 | 0.00 | 0.13 | 0.13 | 89 | 1014.5 |
| 20260505024602 | 74 | 0 | 2.0 | 5.0 | 0.00 | 0.13 | 0.13 | 88 | 1014.4 |
| 20260505024024 | 74 | 0 | 0.0 | 1.0 | 0.00 | 0.13 | 0.13 | 88 | 1014.3 |
| 20260505023524 | 74 | 0 | 0.0 | 3.0 | 0.00 | 0.13 | 0.13 | 88 | 1014.3 |
| 20260505023040 | 74 | 0 | 0.0 | 3.0 | 0.00 | 0.13 | 0.13 | 88 | 1014.4 |
| 20260505022524 | 74 | 107 | 0.0 | 4.0 | 0.00 | 0.13 | 0.13 | 88 | 1014.4 |
| 20260505022024 | 74 | 0 | 0.0 | 4.0 | 0.00 | 0.13 | 0.13 | 88 | 1014.4 |
| 20260505021546 | 74 | 96 | 1.0 | 3.0 | 0.00 | 0.13 | 0.13 | 88 | 1014.2 |
| 20260505021024 | 74 | 98 | 1.0 | 2.0 | 0.00 | 0.13 | 0.13 | 89 | 1014.2 |
| 20260505020525 | 74 | 108 | 0.0 | 5.0 | 0.00 | 0.13 | 0.13 | 89 | 1014.4 |
| 20260505020044 | 74 | 96 | 1.0 | 5.0 | 0.00 | 0.13 | 0.13 | 89 | 1014.6 |
| 20260505015528 | 74 | 82 | 1.0 | 4.0 | 0.00 | 0.13 | 0.13 | 90 | 1014.4 |
| 20260505015024 | 74 | 73 | 1.0 | 5.0 | 0.00 | 0.13 | 0.13 | 90 | 1014.5 |
| 20260505014540 | 74 | 101 | 2.0 | 5.0 | 0.00 | 0.13 | 0.13 | 90 | 1014.2 |
| 20260505014026 | 73 | 117 | 1.0 | 4.0 | 0.00 | 0.13 | 0.13 | 90 | 1014.3 |
| 20260505013523 | 73 | 91 | 2.0 | 4.0 | 0.00 | 0.13 | 0.13 | 91 | 1014.2 |
| 20260505013038 | 73 | 49 | 1.0 | 4.0 | 0.00 | 0.13 | 0.13 | 91 | 1014.2 |
| 20260505012523 | 73 | 89 | 1.0 | 7.0 | 0.00 | 0.13 | 0.13 | 91 | 1014.2 |
| 20260505012025 | 73 | 101 | 1.0 | 7.0 | 0.00 | 0.13 | 0.13 | 91 | 1014.1 |
| 20260505011548 | 73 | 91 | 1.0 | 8.0 | 0.00 | 0.13 | 0.13 | 91 | 1014.1 |
| 20260505011025 | 73 | 87 | 2.0 | 8.0 | 0.00 | 0.13 | 0.13 | 91 | 1013.9 |
| 20260505010528 | 73 | 80 | 3.0 | 8.0 | 0.00 | 0.13 | 0.13 | 90 | 1014.0 |
| 20260505010039 | 73 | 87 | 2.0 | 8.0 | 0.00 | 0.13 | 0.13 | 90 | 1014.0 |
| 20260505005524 | 73 | 136 | 3.0 | 10.0 | 0.00 | 0.13 | 0.13 | 89 | 1014.2 |
| 20260505005024 | 74 | 91 | 4.0 | 10.0 | 0.00 | 0.13 | 0.13 | 90 | 1014.3 |
| 20260505004545 | 74 | 95 | 2.0 | 8.0 | 0.01 | 0.13 | 0.13 | 90 | 1014.0 |
| 20260505004025 | 74 | 70 | 2.0 | 6.0 | 0.02 | 0.13 | 0.13 | 90 | 1014.0 |
| 20260505003523 | 74 | 84 | 2.0 | 7.0 | 0.03 | 0.13 | 0.13 | 90 | 1014.0 |
| 20260505003039 | 74 | 94 | 2.0 | 7.0 | 0.03 | 0.13 | 0.13 | 90 | 1013.8 |
| 20260505002524 | 74 | 88 | 3.0 | 7.0 | 0.03 | 0.13 | 0.13 | 90 | 1013.9 |
| 20260505002024 | 74 | 71 | 2.0 | 7.0 | 0.03 | 0.13 | 0.13 | 90 | 1013.8 |
| 20260505001538 | 74 | 77 | 2.0 | 12.0 | 0.03 | 0.13 | 0.13 | 90 | 1013.8 |
| 20260505001023 | 74 | 85 | 3.0 | 12.0 | 0.03 | 0.13 | 0.13 | 90 | 1013.7 |
| 20260505000523 | 74 | 86 | 3.0 | 7.0 | 0.03 | 0.13 | 0.13 | 90 | 1013.8 |
| 20260505000040 | 74 | 64 | 1.0 | 7.0 | 0.03 | 0.13 | 0.13 | 90 | 1013.7 |
| 20260504235524 | 74 | 98 | 2.0 | 6.0 | 0.03 | 0.30 | 0.13 | 89 | 1013.9 |
| 20260504235025 | 74 | 86 | 1.0 | 8.0 | 0.03 | 0.30 | 0.13 | 88 | 1013.8 |
| 20260504234537 | 75 | 89 | 2.0 | 8.0 | 0.02 | 0.29 | 0.12 | 87 | 1013.7 |
| 20260504234024 | 76 | 59 | 3.0 | 8.0 | 0.00 | 0.27 | 0.10 | 85 | 1013.6 |
| 20260504233524 | 76 | 90 | 3.0 | 10.0 | 0.00 | 0.27 | 0.10 | 82 | 1013.6 |
| 20260504233055 | 76 | 72 | 4.0 | 11.0 | 0.00 | 0.27 | 0.10 | 80 | 1013.6 |
| 20260504232524 | 76 | 106 | 3.0 | 11.0 | 0.00 | 0.27 | 0.10 | 80 | 1013.5 |
| 20260504232023 | 77 | 73 | 5.0 | 11.0 | 0.00 | 0.27 | 0.10 | 80 | 1013.4 |
| 20260504231540 | 77 | 109 | 2.0 | 7.0 | 0.00 | 0.27 | 0.10 | 80 | 1013.6 |
| 20260504231023 | 77 | 78 | 4.0 | 8.0 | 0.00 | 0.27 | 0.10 | 80 | 1013.3 |
| 20260504230525 | 77 | 122 | 4.0 | 8.0 | 0.00 | 0.27 | 0.10 | 79 | 1013.2 |
| 20260504230043 | 77 | 92 | 4.0 | 13.0 | 0.00 | 0.27 | 0.10 | 79 | 1013.2 |
| 20260504225525 | 77 | 95 | 4.0 | 13.0 | 0.00 | 0.27 | 0.10 | 79 | 1013.2 |
| 20260504225023 | 77 | 183 | 4.0 | 9.0 | 0.00 | 0.27 | 0.10 | 79 | 1013.3 |
| 20260504224538 | 77 | 144 | 4.0 | 12.0 | 0.00 | 0.27 | 0.10 | 79 | 1013.4 |
| 20260504224023 | 77 | 101 | 4.0 | 12.0 | 0.00 | 0.27 | 0.10 | 79 | 1013.3 |
| 20260504223524 | 77 | 68 | 5.0 | 10.0 | 0.00 | 0.27 | 0.10 | 79 | 1013.4 |
| 20260504223040 | 78 | 115 | 6.0 | 10.0 | 0.00 | 0.27 | 0.10 | 79 | 1013.4 |
| 20260504222525 | 78 | 75 | 3.0 | 9.0 | 0.00 | 0.27 | 0.10 | 79 | 1013.3 |
| 20260504222024 | 77 | 88 | 2.0 | 9.0 | 0.00 | 0.27 | 0.10 | 80 | 1013.4 |
| 20260504221540 | 77 | 103 | 2.0 | 13.0 | 0.00 | 0.27 | 0.10 | 81 | 1013.4 |
| 20260504221025 | 77 | 91 | 3.0 | 13.0 | 0.00 | 0.27 | 0.10 | 81 | 1013.4 |
| 20260504220526 | 77 | 63 | 3.0 | 13.0 | 0.00 | 0.27 | 0.10 | 81 | 1013.1 |
| 20260504215524 | 77 | 94 | 3.0 | 9.0 | 0.00 | 0.27 | 0.10 | 81 | 1013.1 |
| 20260504215024 | 77 | 84 | 4.0 | 9.0 | 0.00 | 0.27 | 0.10 | 82 | 1013.2 |
| 20260504214542 | 76 | 78 | 2.0 | 7.0 | 0.00 | 0.27 | 0.10 | 83 | 1013.3 |
| 20260504214023 | 76 | 93 | 3.0 | 7.0 | 0.00 | 0.27 | 0.10 | 83 | 1013.4 |
| 20260504213525 | 76 | 71 | 4.0 | 7.0 | 0.00 | 0.27 | 0.10 | 84 | 1013.4 |
| 20260504213038 | 76 | 75 | 2.0 | 4.0 | 0.00 | 0.27 | 0.10 | 86 | 1013.5 |
| 20260504212524 | 76 | 92 | 0.0 | 5.0 | 0.00 | 0.27 | 0.10 | 87 | 1013.6 |
| 20260504212027 | 76 | 85 | 2.0 | 10.0 | 0.00 | 0.27 | 0.10 | 86 | 1013.5 |
| 20260504211537 | 76 | 117 | 2.0 | 10.0 | 0.00 | 0.27 | 0.10 | 86 | 1013.6 |
| 20260504211024 | 76 | 96 | 1.0 | 8.0 | 0.00 | 0.27 | 0.10 | 86 | 1013.6 |
| 20260504210526 | 76 | 94 | 2.0 | 9.0 | 0.00 | 0.27 | 0.10 | 85 | 1013.6 |
| 20260504210037 | 77 | 59 | 3.0 | 9.0 | 0.00 | 0.27 | 0.10 | 85 | 1013.7 |
| 20260504205527 | 77 | 96 | 4.0 | 8.0 | 0.00 | 0.27 | 0.10 | 86 | 1013.6 |
| 20260504205023 | 76 | 85 | 3.0 | 8.0 | 0.00 | 0.27 | 0.10 | 87 | 1013.7 |
| 20260504204557 | 75 | 63 | 2.0 | 9.0 | 0.00 | 0.27 | 0.10 | 89 | 1013.7 |
| 20260504204024 | 75 | 99 | 2.0 | 11.0 | 0.00 | 0.27 | 0.10 | 90 | 1013.6 |
| 20260504203525 | 75 | 82 | 5.0 | 11.0 | 0.00 | 0.27 | 0.10 | 89 | 1013.6 |
| 20260504203042 | 75 | 140 | 5.0 | 11.0 | 0.00 | 0.27 | 0.10 | 88 | 1013.6 |
| 20260504202525 | 75 | 110 | 5.0 | 10.0 | 0.00 | 0.27 | 0.10 | 87 | 1013.7 |
| 20260504202025 | 76 | 106 | 4.0 | 13.0 | 0.00 | 0.27 | 0.10 | 86 | 1013.8 |
| 20260504201539 | 76 | 71 | 5.0 | 13.0 | 0.00 | 0.27 | 0.10 | 84 | 1014.0 |
| 20260504201024 | 78 | 82 | 5.0 | 13.0 | 0.00 | 0.27 | 0.10 | 82 | 1014.0 |
| 20260504200524 | 78 | 127 | 3.0 | 10.0 | 0.00 | 0.27 | 0.10 | 80 | 1014.0 |
| 20260504200043 | 79 | 100 | 4.0 | 11.0 | 0.00 | 0.27 | 0.10 | 79 | 1014.0 |
| 20260504195524 | 78 | 85 | 4.0 | 11.0 | 0.00 | 0.27 | 0.10 | 77 | 1014.0 |
| 20260504195024 | 79 | 148 | 5.0 | 11.0 | 0.00 | 0.27 | 0.10 | 75 | 1014.1 |
| 20260504194541 | 79 | 65 | 5.0 | 12.0 | 0.00 | 0.27 | 0.10 | 75 | 1013.9 |
| 20260504194024 | 79 | 72 | 4.0 | 12.0 | 0.00 | 0.27 | 0.10 | 75 | 1013.9 |
| 20260504193525 | 80 | 153 | 4.0 | 14.0 | 0.00 | 0.27 | 0.10 | 76 | 1013.9 |
| 20260504193037 | 80 | 336 | 4.0 | 14.0 | 0.00 | 0.27 | 0.10 | 74 | 1014.1 |
| 20260504192525 | 80 | 77 | 6.0 | 14.0 | 0.00 | 0.27 | 0.10 | 73 | 1014.1 |
| 20260504192024 | 81 | 65 | 5.0 | 13.0 | 0.00 | 0.27 | 0.10 | 74 | 1014.1 |
| 20260504191541 | 80 | 90 | 5.0 | 13.0 | 0.00 | 0.27 | 0.10 | 75 | 1014.2 |
| 20260504191028 | 80 | 356 | 4.0 | 11.0 | 0.00 | 0.27 | 0.10 | 75 | 1014.2 |
| 20260504190525 | 80 | 98 | 4.0 | 11.0 | 0.00 | 0.27 | 0.10 | 74 | 1014.3 |
| 20260504190040 | 80 | 74 | 3.0 | 16.0 | 0.00 | 0.27 | 0.10 | 76 | 1014.4 |
| 20260504185523 | 80 | 96 | 5.0 | 16.0 | 0.00 | 0.27 | 0.10 | 74 | 1014.6 |
| 20260504185024 | 80 | 83 | 3.0 | 12.0 | 0.00 | 0.27 | 0.10 | 75 | 1014.8 |
| 20260504184539 | 80 | 271 | 4.0 | 15.0 | 0.00 | 0.27 | 0.10 | 76 | 1014.8 |
| 20260504184024 | 79 | 122 | 4.0 | 15.0 | 0.00 | 0.27 | 0.10 | 77 | 1014.8 |
| 20260504183524 | 79 | 41 | 6.0 | 14.0 | 0.00 | 0.27 | 0.10 | 76 | 1014.8 |
| 20260504183037 | 80 | 153 | 6.0 | 14.0 | 0.00 | 0.27 | 0.10 | 77 | 1014.9 |
| 20260504182524 | 80 | 72 | 4.0 | 13.0 | 0.00 | 0.27 | 0.10 | 78 | 1014.9 |
| 20260504182024 | 79 | 101 | 4.0 | 13.0 | 0.00 | 0.27 | 0.10 | 78 | 1014.9 |
| 20260504181542 | 78 | 112 | 4.0 | 13.0 | 0.00 | 0.27 | 0.10 | 80 | 1014.9 |
| 20260504181024 | 77 | 84 | 5.0 | 12.0 | 0.00 | 0.27 | 0.10 | 82 | 1014.9 |
| 20260504180523 | 77 | 167 | 3.0 | 7.0 | 0.00 | 0.27 | 0.10 | 84 | 1014.9 |
| 20260504180041 | 76 | 93 | 2.0 | 7.0 | 0.01 | 0.27 | 0.10 | 86 | 1015.0 |
| 20260504175523 | 76 | 84 | 3.0 | 8.0 | 0.02 | 0.27 | 0.10 | 87 | 1014.9 |
| 20260504175024 | 76 | 84 | 2.0 | 8.0 | 0.03 | 0.27 | 0.10 | 88 | 1014.9 |
| 20260504174540 | 75 | 119 | 3.0 | 7.0 | 0.04 | 0.27 | 0.10 | 89 | 1014.9 |
| 20260504174024 | 74 | 84 | 4.0 | 9.0 | 0.04 | 0.27 | 0.10 | 90 | 1015.0 |
| 20260504173524 | 74 | 98 | 3.0 | 10.0 | 0.04 | 0.27 | 0.10 | 90 | 1015.2 |
| 20260504173039 | 74 | 55 | 4.0 | 10.0 | 0.04 | 0.27 | 0.10 | 90 | 1015.3 |
| 20260504172527 | 74 | 133 | 3.0 | 10.0 | 0.04 | 0.27 | 0.10 | 90 | 1015.4 |
| 20260504172023 | 74 | 70 | 2.0 | 8.0 | 0.04 | 0.27 | 0.10 | 90 | 1015.4 |
| 20260504171539 | 74 | 146 | 3.0 | 12.0 | 0.04 | 0.27 | 0.10 | 89 | 1015.4 |
| 20260504171025 | 74 | 146 | 4.0 | 12.0 | 0.04 | 0.27 | 0.10 | 89 | 1015.4 |
| 20260504170524 | 74 | 85 | 2.0 | 8.0 | 0.04 | 0.27 | 0.10 | 88 | 1015.3 |
| 20260504151039 | 80 | 115 | 4.0 | 13.0 | 0.00 | 0.23 | 0.06 | 77 | 1015.2 |
| 20260504150527 | 80 | 142 | 4.0 | 9.0 | 0.00 | 0.23 | 0.06 | 77 | 1015.2 |
| 20260504141024 | 79 | 334 | 0.0 | 6.0 | 0.00 | 0.23 | 0.06 | 81 | 1015.0 |
| 20260504140524 | 79 | 1 | 2.0 | 5.0 | 0.00 | 0.23 | 0.06 | 81 | 1014.9 |
| 20260504130525 | 76 | 0 | 0.0 | 3.0 | 0.00 | 0.23 | 0.06 | 93 | 1014.8 |
| 20260504110524 | 0 | 0.0 | 0.0 | 0.00 | 0.23 | 0.06 | 1013.7 | ||
| 20260504100524 | 0 | 0.0 | 0.0 | 0.00 | 0.23 | 0.06 | 1013.7 | ||
| 20260504081546 | 0 | 0.0 | 0.0 | 0.06 | 0.23 | 0.06 | 97 | 1012.9 | |
| 20260504081024 | 0 | 0 | 0.0 | 0.0 | 0.06 | 0.23 | 0.06 | 97 | 1012.9 |
| 20260504080525 | 71 | 0 | 0.0 | 0.0 | 0.06 | 0.23 | 0.06 | 97 | 1012.8 |
| 20260504050524 | 72 | 0 | 0.0 | 0.0 | 0.00 | 0.17 | 0.00 | 97 | 1014.9 |
| 20260504045523 | 72 | 0 | 0.0 | 0.0 | 0.00 | 0.17 | 0.00 | 97 | 1014.7 |
| 20260504045024 | 72 | 0 | 0.0 | 0.0 | 0.00 | 0.17 | 0.00 | 97 | 1014.4 |
| 20260504044538 | 72 | 0 | 0.0 | 0.0 | 0.00 | 0.17 | 0.00 | 97 | 1014.4 |
| 20260504044026 | 72 | 0 | 0.0 | 0.0 | 0.00 | 0.17 | 0.00 | 97 | 1014.6 |
| 20260504043528 | 72 | 0 | 0.0 | 0.0 | 0.00 | 0.17 | 0.00 | 97 | 1014.6 |
| 20260504043042 | 72 | 0 | 0.0 | 0.0 | 0.00 | 0.17 | 0.00 | 97 | 1014.5 |
| 20260504042524 | 72 | 0 | 0.0 | 0.0 | 0.00 | 0.17 | 0.00 | 97 | 1014.5 |
| 20260504042024 | 72 | 0 | 0.0 | 0.0 | 0.00 | 0.17 | 0.00 | 97 | 1014.6 |
| 20260504041538 | 72 | 0 | 0.0 | 0.0 | 0.00 | 0.17 | 0.00 | 97 | 1014.5 |
| 20260504041024 | 72 | 0 | 0.0 | 0.0 | 0.00 | 0.17 | 0.00 | 97 | 1014.7 |
| 20260504040524 | 72 | 0 | 0.0 | 0.0 | 0.00 | 0.17 | 0.00 | 97 | 1014.7 |
| 20260504040038 | 72 | 0 | 0.0 | 0.0 | 0.00 | 0.17 | 0.00 | 97 | 1014.8 |
| 20260504035524 | 72 | 0 | 0.0 | 0.0 | 0.00 | 0.17 | 0.17 | 97 | 1014.8 |
| 20260504035025 | 72 | 0 | 0.0 | 0.0 | 0.00 | 0.17 | 0.17 | 97 | 1014.9 |
| 20260504034541 | 72 | 0 | 0.0 | 0.0 | 0.00 | 0.17 | 0.17 | 97 | 1014.9 |
| 20260504034024 | 72 | 0 | 0.0 | 0.0 | 0.00 | 0.17 | 0.17 | 96 | 1014.9 |
| 20260504033526 | 72 | 0 | 0.0 | 0.0 | 0.00 | 0.17 | 0.17 | 96 | 1014.9 |
| 20260504033040 | 72 | 0 | 0.0 | 0.0 | 0.00 | 0.17 | 0.17 | 96 | 1014.9 |
| 20260504032526 | 72 | 0 | 0.0 | 0.0 | 0.00 | 0.17 | 0.17 | 96 | 1014.9 |